Terminal Aerodrome Forecast
Issued by NWS

Home | Current Version | Previous Version | Text Only | Print | Product List | Glossary On
Versions: 1 2 3 4 5 6 7 8 9 10 11 12 13 14 15 16 17 18 19 20 21 22 23 24 25 26 27 28 29 30 31
000
FTUS41 KBOX 230804 AAB
TAFFMH
TAF AMD
KFMH 230804Z 2308/2406 05006KT P6SM SCT015 OVC060
     FM231300 04010KT P6SM BKN040
     FM231800 04012KT P6SM SCT040
     FM232300 04008KT P6SM SCT250
     FM240400 04004KT P6SM FEW250=

USA.gov is the U.S. government's official web portal to all federal, state and local government web resources and services.